User: anonymous   Login
Location: Unspecified
(0.0000°N, 0.0000°E)
Time: 20:16:45
(UTC+00:00)
Language:

FALCONSAT 3 - Orbit

View from above orbital plane
View from above orbital plane
View from above satellite
View from above satellite

Ground track
Ground track

The orbit data is extracted from the following two-line orbital elements,

1 30776U 07006E   18021.65708225 +.00003225 +00000-0 +97842-4 0  9999
2 30776 035.4355 119.0617 0002696 160.4720 199.6109 15.33787356601806
Epoch (UTC): 21 January 2018 15:46:11
Eccentricity: 0.0002696
inclination: 35.4355°
perigee height: 462 km
apogee height: 466 km
right ascension of ascending node: 119.0617°
argument of perigee: 160.4720°
revolutions per day: 15.33787356
mean anomaly at epoch: 199.6109°
orbit number at epoch: 60180

The dashed part of the orbit path shows where the satellite is in the earth's shadow,  

DLR